Tracking 26492 objects as of 8-Dec-2022
HD Live streaming from Space Station
objects crossing your sky now

STARLINK-4751

Track STARLINK-4751 now!
10-day predictions
STARLINK-4751 is classified as:


NORAD ID: 53825
Int'l Code: 2022-114H
Perigee: 545.8 km
Apogee: 548.0 km
Inclination: 53.2 °
Period: 95.4 minutes
Semi major axis: 6917 km
RCS: Unknown
Launch date: September 19, 2022
Source: United States (US)
Launch site: AIR FORCE EASTERN TEST RANGE (AFETR)
aabbcc
Your satellite tracking list
Your tracking list is empty




NASA's NSSDC Master Catalog

Two Line Element Set (TLE):
1 53825U 22114H   22342.09966903 -.00000934  00000-0 -40572-4 0  9998
2 53825  53.2156 235.5474 0001578  61.4233 298.6918 15.08841178 13007
Source of the keplerian elements: AFSPC